Rotterdam, Netherlands

9:45 AM CEST on July 28, 2017 (GMT +0200)
Rotterdam

Weather History for EHRD - October, 2011

Change the Weather History Date:

Tuesday, October 11, 2011

  Actual Average Record
Temperature  
Mean Temperature 60 °F -  
Max Temperature 63 °F 53 °F 69 °F (2005)
Min Temperature 57 °F 43 °F 34 °F (2016)
Degree Days  
Heating Degree Days 5    
Growing Degree Days 10 (Base 50)    
Moisture  
Dew Point 57 °F    
Average Humidity 84    
Maximum Humidity 100    
Minimum Humidity 74    
Precipitation  
Precipitation 0.00 in - - ()
Sea Level Pressure  
Sea Level Pressure 29.99 in    
Wind  
Wind Speed 19 mph ()    
Max Wind Speed 24 mph    
Max Gust Speed 37 mph    
Visibility 6.6 miles    
Events Rain    
Averages and records for this station are not official NWS values.
T = Trace of Precipitation, MM = Missing Value Source: Averaged Metar Reports

Daily Weather History Graph

Daily Weather History Graph

Search for Another Location

Airport or City:

Trip Planner

Search our weather history database for the weather conditions in past years. The results will help you decide how hot, cold, wet, or windy it might be!

Date:

Astronomy

Oct. 11, 2011 Rise Set
Actual Time 7:59 AM CEST 6:57 PM CEST
Civil Twilight 7:25 AM CEST 7:31 PM CEST
Nautical Twilight 6:46 AM CEST 8:10 PM CEST
Astronomical Twilight 6:06 AM CEST 8:49 PM CEST
Moon 6:16 PM CEST (10/11) 7:24 AM CEST (10/11)
Length of Visible Light 12h 06m
Length of Day
10h 58m
Full, 100% of the Moon is Illuminated
Oct 11
Full
Oct 12
Full
Oct 20
Last Quarter
Oct 26
New
Nov 2
First Quarter

Hourly Weather History & Observations

Time (CEST) Temp. Dew Point Humidity Pressure Visibility Wind Dir Wind Speed Gust Speed Precip Events Conditions
12:25 AM 62.6 °F 59.0 °F 88% 30.01 in 6.2 mi WSW 21.9 mph - N/A   Overcast
12:55 AM 62.6 °F 59.0 °F 88% 29.98 in 6.2 mi WSW 24.2 mph - N/A   Overcast
1:25 AM 62.6 °F 59.0 °F 88% 30.01 in 6.2 mi WSW 21.9 mph - N/A   Overcast
1:55 AM 60.8 °F 59.0 °F 94% 29.98 in 4.3 mi WSW 23.0 mph - N/A   Overcast
2:00 AM 61 °F 58 °F 88% 30.00 in 4 mi WSW 22.4 mph - -   Mist
2:25 AM 62.6 °F 57.2 °F 82% 29.98 in 6.2 mi WSW 20.7 mph 32.2 mph N/A   Overcast
2:55 AM 62.6 °F 57.2 °F 82% 29.98 in 6.2 mi WSW 23.0 mph - N/A   Overcast
3:25 AM 60.8 °F 57.2 °F 88% 29.98 in 6.2 mi WSW 19.6 mph 32.2 mph N/A   Overcast
3:55 AM 60.8 °F 57.2 °F 88% 29.98 in 6.2 mi WSW 23.0 mph - N/A   Overcast
4:25 AM 60.8 °F 55.4 °F 82% 29.98 in 6.2 mi WSW 23.0 mph - N/A   Overcast
4:55 AM 60.8 °F 55.4 °F 82% 29.98 in 6.2 mi WSW 23.0 mph - N/A   Overcast
5:00 AM 61 °F 55 °F 76% 29.98 in 11 mi WSW 22.4 mph - -   Overcast
5:25 AM 60.8 °F 55.4 °F 82% 29.98 in 6.2 mi WSW 24.2 mph - N/A   Overcast
5:55 AM 60.8 °F 55.4 °F 82% 29.95 in 6.2 mi WSW 23.0 mph 34.5 mph N/A   Overcast
6:25 AM 60.8 °F 57.2 °F 88% 29.98 in 6.2 mi West 17.3 mph - N/A Rain Light Rain
6:55 AM 60.8 °F 55.4 °F 82% 29.95 in 6.2 mi WSW 20.7 mph - N/A   Overcast
7:25 AM 60.8 °F 55.4 °F 82% 29.95 in 6.2 mi WSW 18.4 mph - N/A   Overcast
7:55 AM 60.8 °F 55.4 °F 82% 29.95 in 6.2 mi WSW 23.0 mph - N/A   Overcast
8:00 AM 61 °F 55 °F 75% 29.97 in 14 mi WSW 22.4 mph - -   Partly Cloudy
8:25 AM 60.8 °F 55.4 °F 82% 29.95 in 6.2 mi WSW 21.9 mph - N/A   Mostly Cloudy
8:55 AM 62.6 °F 55.4 °F 77% 29.95 in 6.2 mi WSW 24.2 mph 35.7 mph N/A   Overcast
9:25 AM 62.6 °F 55.4 °F 77% 29.98 in 6.2 mi WSW 21.9 mph - N/A   Overcast
9:55 AM 62.6 °F 55.4 °F 77% 29.98 in 6.2 mi WSW 24.2 mph 35.7 mph N/A   Mostly Cloudy
10:25 AM 62.6 °F 57.2 °F 82% 29.98 in 6.2 mi WSW 23.0 mph - N/A   Overcast
10:55 AM 62.6 °F 57.2 °F 82% 29.98 in 6.2 mi WSW 21.9 mph 34.5 mph N/A   Overcast
11:00 AM 63 °F 57 °F 74% 29.99 in 11 mi WSW 22.4 mph - -   Overcast
11:25 AM 62.6 °F 57.2 °F 82% 29.98 in 6.2 mi WSW 20.7 mph 33.4 mph N/A   Overcast
11:55 AM 62.6 °F 57.2 °F 82% 29.98 in 6.2 mi WSW 23.0 mph 36.8 mph N/A   Mostly Cloudy
12:25 PM 62.6 °F 57.2 °F 82% 29.98 in 6.2 mi WSW 20.7 mph 33.4 mph N/A   Overcast
12:55 PM 62.6 °F 57.2 °F 82% 29.98 in 6.2 mi WSW 21.9 mph - N/A   Overcast
1:25 PM 64.4 °F 57.2 °F 77% 29.98 in 6.2 mi WSW 21.9 mph 35.7 mph N/A   Mostly Cloudy
1:55 PM 62.6 °F 57.2 °F 82% 29.98 in 6.2 mi WSW 23.0 mph 35.7 mph N/A   Overcast
2:00 PM 63 °F 57 °F 75% 30.00 in 13 mi WSW 22.4 mph - -   Overcast
2:25 PM 64.4 °F 57.2 °F 77% 29.98 in 6.2 mi WSW 24.2 mph - N/A   Mostly Cloudy
2:55 PM 64.4 °F 57.2 °F 77% 29.98 in 6.2 mi WSW 21.9 mph - N/A   Mostly Cloudy
3:25 PM 64.4 °F 57.2 °F 77% 29.98 in 6.2 mi WSW 21.9 mph 33.4 mph N/A   Mostly Cloudy
3:55 PM 62.6 °F 57.2 °F 82% 29.98 in 6.2 mi WSW 23.0 mph 34.5 mph N/A   Overcast
4:25 PM 62.6 °F 57.2 °F 82% 29.98 in 6.2 mi WSW 21.9 mph 33.4 mph N/A   Overcast
4:55 PM 62.6 °F 57.2 °F 82% 29.98 in 6.2 mi WSW 21.9 mph 36.8 mph N/A   Mostly Cloudy
5:00 PM 63 °F 57 °F 75% 29.99 in 12 mi WSW 22.4 mph - -   Overcast
5:25 PM 62.6 °F 57.2 °F 82% 29.98 in 6.2 mi WSW 21.9 mph - N/A   Overcast
5:55 PM 62.6 °F 57.2 °F 82% 29.98 in 6.2 mi WSW 23.0 mph - N/A   Overcast
6:25 PM 62.6 °F 57.2 °F 82% 29.98 in 6.2 mi WSW 21.9 mph - N/A   Mostly Cloudy
6:55 PM 62.6 °F 57.2 °F 82% 29.98 in 6.2 mi WSW 19.6 mph - N/A   Overcast
7:25 PM 62.6 °F 59.0 °F 88% 30.01 in 6.2 mi West 16.1 mph - N/A   Overcast
7:55 PM 60.8 °F 59.0 °F 94% 30.01 in 6.2 mi WNW 10.4 mph - N/A   Partly Cloudy
8:00 PM 61 °F 59 °F 89% 30.03 in 12 mi NW 8.9 mph - - Rain Rain
8:25 PM 60.8 °F 59.0 °F 94% 30.04 in 6.2 mi NW 6.9 mph - N/A   Overcast
8:55 PM 59.0 °F 55.4 °F 88% 30.04 in 6.2 mi NW 10.4 mph - N/A Rain Light Rain
9:25 PM 57.2 °F 55.4 °F 94% 30.04 in 6.2 mi NW 5.8 mph - N/A   Mostly Cloudy
9:55 PM 57.2 °F 57.2 °F 100% 30.04 in 3.7 mi NW 3.5 mph - N/A   Heavy Drizzle
10:25 PM 57.2 °F 57.2 °F 100% 30.04 in 3.1 mi Variable 2.3 mph - N/A   Drizzle
10:55 PM 57.2 °F 55.4 °F 94% 30.06 in 6.2 mi NW 4.6 mph - N/A   Drizzle
11:00 PM 57 °F 56 °F 96% 30.07 in 6 mi WNW 4.5 mph - - Rain Rain
11:25 PM 57.2 °F 57.2 °F 100% 30.06 in - Variable 2.3 mph - N/A   Heavy Drizzle
11:55 PM 57.2 °F 57.2 °F 100% 30.06 in 3.1 mi Variable 2.3 mph - N/A   Heavy Drizzle